Prairie Du Chien, WI

3:52 PM CST on February 06, 2016 (GMT -0600)
Prairie Du Chien Municipal

Weather History for KPDC - March, 2013

Change the Weather History Date:

Wednesday, March 20, 2013

  Actual Average Record
Temperature  
Mean Temperature 14 °F -  
Max Temperature 21 °F 47 °F 78 °F (2012)
Min Temperature 8 °F 27 °F -10 °F (1965)
Degree Days  
Heating Degree Days 50    
Moisture  
Dew Point 3 °F    
Average Humidity 61    
Maximum Humidity 73    
Minimum Humidity 53    
Precipitation  
Precipitation 0.00 in - - ()
Sea Level Pressure  
Sea Level Pressure 30.14 in    
Wind  
Wind Speed 15 mph (WNW)    
Max Wind Speed 23 mph    
Max Gust Speed 30 mph    
Visibility 10 miles    
Events      
Averages and records for this station are not official NWS values.
T = Trace of Precipitation, MM = Missing Value Source: NWS Daily Summary

Daily Weather History Graph

Daily Weather History Graph

Search for Another Location

Airport or City:

Trip Planner

Search our weather history database for the weather conditions in past years. The results will help you decide how hot, cold, wet, or windy it might be!

Date:

Astronomy

Mar. 20, 2013 Rise Set
Actual Time 7:07 AM CDT 7:17 PM CDT
Civil Twilight 6:38 AM CDT 7:45 PM CDT
Nautical Twilight 6:05 AM CDT 8:18 PM CDT
Astronomical Twilight 5:31 AM CDT 8:52 PM CDT
Moon 12:44 PM CDT (3/20) 2:55 AM CDT (3/20)
Length of Visible Light 13h 06m
Length of Day
12h 09m
First Quarter, 59% of the Moon is Illuminated
Mar 20
First Quarter
Mar 27
Full
Apr 2
Last Quarter
Apr 10
New
Apr 18
First Quarter

Hourly Weather History & Observations

Time (CDT) Temp. Windchill Dew Point Humidity Pressure Visibility Wind Dir Wind Speed Gust Speed Precip Events Conditions
12:35 AM 14.0 °F -0.2 °F 3.2 °F 62% 30.16 in 10.0 mi West 12.7 mph - N/A   Clear
12:55 AM 14.0 °F -2.0 °F 3.2 °F 62% 30.16 in 10.0 mi WNW 16.1 mph - N/A   Clear
1:15 AM 12.2 °F -5.3 °F 1.4 °F 62% 30.16 in 10.0 mi WNW 18.4 mph 25.3 mph N/A   Clear
1:35 AM 12.2 °F -4.8 °F 1.4 °F 62% 30.16 in 10.0 mi WNW 17.3 mph 23.0 mph N/A   Clear
1:55 AM 12.2 °F -3.7 °F 1.4 °F 62% 30.16 in 10.0 mi WNW 15.0 mph 20.7 mph N/A   Clear
2:15 AM 12.2 °F -4.3 °F 1.4 °F 62% 30.17 in 10.0 mi WNW 16.1 mph - N/A   Clear
2:35 AM 12.2 °F -4.8 °F -0.4 °F 57% 30.16 in 10.0 mi WNW 17.3 mph 24.2 mph N/A   Clear
2:55 AM 10.4 °F -7.2 °F -0.4 °F 62% 30.16 in 10.0 mi WNW 17.3 mph 23.0 mph N/A   Clear
3:15 AM 10.4 °F -6.6 °F -0.4 °F 62% 30.16 in 10.0 mi WNW 16.1 mph 21.9 mph N/A   Clear
3:35 AM 10.4 °F -6.6 °F -0.4 °F 62% 30.17 in 10.0 mi WNW 16.1 mph - N/A   Clear
3:55 AM 10.4 °F -6.0 °F -2.2 °F 57% 30.16 in 10.0 mi WNW 15.0 mph - N/A   Clear
4:15 AM 10.4 °F -6.6 °F -2.2 °F 57% 30.16 in 10.0 mi WNW 16.1 mph 24.2 mph N/A   Clear
4:35 AM 10.4 °F -7.2 °F -0.4 °F 62% 30.16 in 10.0 mi WNW 17.3 mph 21.9 mph N/A   Clear
4:55 AM 10.4 °F -4.8 °F -2.2 °F 57% 30.17 in 10.0 mi WNW 12.7 mph - N/A   Clear
5:15 AM 10.4 °F -4.8 °F -2.2 °F 57% 30.17 in 10.0 mi WNW 12.7 mph 23.0 mph N/A   Clear
5:35 AM 10.4 °F -6.0 °F -2.2 °F 57% 30.17 in 10.0 mi WNW 15.0 mph - N/A   Clear
5:55 AM 8.6 °F -7.0 °F -2.2 °F 62% 30.17 in 10.0 mi West 12.7 mph 20.7 mph N/A   Clear
6:15 AM 8.6 °F -7.7 °F -2.2 °F 62% 30.17 in 10.0 mi WNW 13.8 mph - N/A   Clear
6:35 AM 8.6 °F -9.5 °F -2.2 °F 62% 30.18 in 10.0 mi WNW 17.3 mph 20.7 mph N/A   Clear
6:55 AM 8.6 °F -7.0 °F -0.4 °F 67% 30.18 in 10.0 mi WNW 12.7 mph - N/A   Clear
7:15 AM 8.6 °F -7.7 °F -0.4 °F 67% 30.18 in 10.0 mi WNW 13.8 mph 18.4 mph N/A   Clear
7:35 AM 8.6 °F -6.3 °F -0.4 °F 67% 30.18 in 10.0 mi WNW 11.5 mph - N/A   Clear
7:55 AM 8.6 °F -8.9 °F -0.4 °F 67% 30.18 in 10.0 mi WNW 16.1 mph 23.0 mph N/A   Clear
8:15 AM 8.6 °F -8.3 °F -0.4 °F 67% 30.18 in 10.0 mi WNW 15.0 mph 21.9 mph N/A   Clear
8:35 AM 10.4 °F -6.6 °F -0.4 °F 62% 30.18 in 10.0 mi WNW 16.1 mph 26.5 mph N/A   Clear
8:55 AM 10.4 °F -6.0 °F -0.4 °F 62% 30.18 in 10.0 mi NW 15.0 mph 24.2 mph N/A   Clear
9:15 AM 10.4 °F -7.2 °F -0.4 °F 62% 30.18 in 10.0 mi WNW 17.3 mph 26.5 mph N/A   Clear
9:35 AM 10.4 °F -7.2 °F -0.4 °F 62% 30.18 in 10.0 mi WNW 17.3 mph 25.3 mph N/A   Clear
9:55 AM 12.2 °F -4.8 °F 1.4 °F 62% 30.17 in 10.0 mi WNW 17.3 mph 25.3 mph N/A   Clear
10:15 AM 12.2 °F -4.8 °F 1.4 °F 62% 30.17 in 10.0 mi WNW 17.3 mph - N/A   Clear
10:35 AM 14.0 °F -2.0 °F 1.4 °F 57% 30.17 in 10.0 mi West 16.1 mph 21.9 mph N/A   Clear
10:55 AM 14.0 °F -3.9 °F 3.2 °F 62% 30.16 in 10.0 mi West 20.7 mph 25.3 mph N/A   Clear
11:15 AM 15.8 °F 0.9 °F 3.2 °F 58% 30.16 in 10.0 mi West 15.0 mph 23.0 mph N/A   Clear
11:35 AM 15.8 °F 0.3 °F 3.2 °F 58% 30.16 in 10.0 mi WNW 16.1 mph 19.6 mph N/A   Scattered Clouds
11:55 AM 15.8 °F -2.3 °F 3.2 °F 58% 30.15 in 10.0 mi WNW 23.0 mph 28.8 mph N/A   Scattered Clouds
12:15 PM 17.6 °F 1.7 °F 3.2 °F 53% 30.15 in 10.0 mi WNW 18.4 mph 25.3 mph N/A   Clear
12:35 PM 17.6 °F 0.1 °F 3.2 °F 53% 30.14 in 10.0 mi West 23.0 mph 28.8 mph N/A   Clear
12:55 PM 17.6 °F 0.9 °F 3.2 °F 53% 30.13 in 10.0 mi WNW 20.7 mph 26.5 mph N/A   Clear
1:15 PM 19.4 °F 5.5 °F 5.0 °F 54% 30.13 in 10.0 mi NW 15.0 mph 29.9 mph N/A   Clear
1:35 PM 19.4 °F 4.1 °F 5.0 °F 54% 30.12 in 10.0 mi West 18.4 mph 28.8 mph N/A   Clear
1:55 PM 19.4 °F 4.1 °F 5.0 °F 54% 30.12 in 10.0 mi West 18.4 mph 24.2 mph N/A   Scattered Clouds
2:15 PM 19.4 °F 4.1 °F 5.0 °F 54% 30.11 in 10.0 mi West 18.4 mph 23.0 mph N/A   Clear
2:35 PM 19.4 °F 4.1 °F 6.8 °F 58% 30.10 in 10.0 mi West 18.4 mph - N/A   Clear
2:55 PM 19.4 °F 4.5 °F 6.8 °F 58% 30.10 in 10.0 mi WNW 17.3 mph 24.2 mph N/A   Clear
3:15 PM 19.4 °F 4.1 °F 6.8 °F 58% 30.09 in 10.0 mi West 18.4 mph 24.2 mph N/A   Scattered Clouds
3:35 PM 19.4 °F 3.2 °F 6.8 °F 58% 30.09 in 10.0 mi West 20.7 mph - N/A   Scattered Clouds
3:55 PM 19.4 °F 4.5 °F 5.0 °F 54% 30.09 in 10.0 mi West 17.3 mph 25.3 mph N/A   Scattered Clouds
4:15 PM 21.2 °F 7.3 °F 6.8 °F 54% 30.09 in 10.0 mi West 16.1 mph 24.2 mph N/A   Mostly Cloudy
4:35 PM 21.2 °F 6.8 °F 6.8 °F 54% 30.09 in 10.0 mi West 17.3 mph 24.2 mph N/A   Overcast
4:55 PM 19.4 °F 4.5 °F 6.8 °F 58% 30.10 in 10.0 mi WNW 17.3 mph 23.0 mph N/A   Overcast
5:15 PM 19.4 °F 3.2 °F 6.8 °F 58% 30.10 in 10.0 mi WNW 20.7 mph - N/A   Overcast
5:35 PM 19.4 °F 5.5 °F 6.8 °F 58% 30.10 in 10.0 mi WNW 15.0 mph 24.2 mph N/A   Mostly Cloudy
5:55 PM 19.4 °F 3.6 °F 5.0 °F 54% 30.09 in 10.0 mi West 19.6 mph 26.5 mph N/A   Mostly Cloudy
6:15 PM 19.4 °F 4.5 °F 6.8 °F 58% 30.10 in 10.0 mi WNW 17.3 mph 24.2 mph N/A   Overcast
6:35 PM 19.4 °F 3.6 °F 6.8 °F 58% 30.10 in 10.0 mi WNW 19.6 mph - N/A   Overcast
6:55 PM 17.6 °F 3.2 °F 6.8 °F 63% 30.10 in 10.0 mi West 15.0 mph 21.9 mph N/A   Mostly Cloudy
7:15 PM 17.6 °F 4.3 °F 5.0 °F 58% 30.10 in 10.0 mi WNW 12.7 mph 20.7 mph N/A   Scattered Clouds
7:35 PM 17.6 °F 6.4 °F 6.8 °F 63% 30.10 in 10.0 mi West 9.2 mph - N/A   Clear
7:55 PM 15.8 °F 4.2 °F 6.8 °F 68% 30.10 in 10.0 mi West 9.2 mph - N/A   Clear
8:15 PM 15.8 °F 6.1 °F 6.8 °F 68% 30.10 in 10.0 mi WNW 6.9 mph - N/A   Clear
8:35 PM 15.8 °F 4.2 °F 5.0 °F 62% 30.10 in 10.0 mi West 9.2 mph - N/A   Clear
8:55 PM 15.8 °F 6.1 °F 5.0 °F 62% 30.10 in 10.0 mi WNW 6.9 mph - N/A   Clear
9:15 PM 15.8 °F 7.2 °F 5.0 °F 62% 30.11 in 10.0 mi WNW 5.8 mph - N/A   Clear
9:35 PM 15.8 °F 7.2 °F 5.0 °F 62% 30.11 in 10.0 mi WNW 5.8 mph - N/A   Clear
9:55 PM 15.8 °F 7.2 °F 5.0 °F 62% 30.11 in 10.0 mi WNW 5.8 mph - N/A   Clear
10:15 PM 14.0 °F 5.1 °F 5.0 °F 67% 30.11 in 10.0 mi WNW 5.8 mph - N/A   Clear
10:35 PM 14.0 °F 6.5 °F 5.0 °F 67% 30.12 in 10.0 mi WNW 4.6 mph - N/A   Clear
10:55 PM 14.0 °F 5.1 °F 5.0 °F 67% 30.12 in 10.0 mi WNW 5.8 mph - N/A   Clear
11:15 PM 12.2 °F 2.9 °F 5.0 °F 73% 30.12 in 10.0 mi West 5.8 mph - N/A   Clear
11:35 PM 12.2 °F 2.9 °F 5.0 °F 73% 30.12 in 10.0 mi West 5.8 mph - N/A   Clear
11:55 PM 12.2 °F 4.3 °F 5.0 °F 73% 30.12 in 10.0 mi West 4.6 mph - N/A   Clear